Weather History for Billings, MT

Change the Weather History Date:

Friday, October 26, 2012

  Actual Average Record
Temperature  
Mean Temperature 32 °F 45 °F  
Max Temperature 40 °F 56 °F 81 °F (1983)
Min Temperature 23 °F 34 °F 22 °F (1970)
Degree Days  
Heating Degree Days 33 20  
Month to date heating degree days 489 414  
Since 1 July heating degree days 554 643  
Cooling Degree Days 0 0  
Month to date cooling degree days 3 0  
Year to date cooling degree days 958 633  
Moisture  
Dew Point 21 °F    
Average Humidity 65    
Maximum Humidity 81    
Minimum Humidity 48    
Precipitation  
Precipitation 0.00 in 0.03 in 0.30 in (1955)
Month to date precipitation 1.12 1.04  
Year to date precipitation 6.20 12.39  
Snow  
Snow 0.00 in 0.10 in 4.00 in (1996)
Month to date snowfall 4.1 3.3  
Since 1 July snowfall 4.1 4.4  
Since 1 September snowfall 4.1 4.4  
Snow Depth 0.00 in    
Sea Level Pressure  
Sea Level Pressure 30.35 in    
Wind  
Wind Speed 6 mph (WSW)    
Max Wind Speed 21 mph    
Max Gust Speed 24 mph    
Visibility 10 miles    
Events      
T = Trace of Precipitation, MM = Missing Value Source: NWS Daily Summary

Daily Weather History Graph

Daily Weather History Graph

Search for Another Location

Airport:

Trip Planner

Search our weather history database for the weather conditions in past years. The results will help you decide how hot, cold, wet, or windy it might be!

Date:

Astronomy

Oct. 26, 2012 Rise Set
Actual Time 7:46 AM MDT 6:08 PM MDT
Civil Twilight 7:15 AM MDT 6:39 PM MDT
Nautical Twilight 6:41 AM MDT 7:14 PM MDT
Astronomical Twilight 6:06 AM MDT 7:48 PM MDT
Moon 4:32 PM MDT (10/26) 4:38 AM MDT (10/26)
Length of Visible Light 11h 23m
Length of Day
10h 22m
Waxing Gibbous, 91% of the Moon is Illuminated
Oct 26
Waxing Gibbous
Oct 29
Full
Nov 6
Last Quarter
Nov 13
New
Nov 20
First Quarter

Hourly Weather History & Observations

Time (MDT) Temp. Windchill Dew Point Humidity Pressure Visibility Wind Dir Wind Speed Gust Speed Precip Events Conditions
12:53 AM 26.1 °F 21.9 °F 21.0 °F 81% 30.52 in 10.0 mi NNE 3.5 mph - 0.00 in   Overcast
1:53 AM 26.1 °F 20.5 °F 21.0 °F 81% 30.52 in 10.0 mi NNE 4.6 mph - N/A   Overcast
2:53 AM 26.1 °F - 21.0 °F 81% 30.53 in 10.0 mi Calm Calm - N/A   Overcast
3:53 AM 26.1 °F - 21.0 °F 81% 30.52 in 10.0 mi Calm Calm - N/A   Overcast
4:53 AM 26.1 °F - 21.0 °F 81% 30.50 in 10.0 mi Calm Calm - N/A   Overcast
5:16 AM 24.8 °F 19.1 °F 21.2 °F 86% 30.36 in 10.0 mi SSE 4.6 mph - N/A   Scattered Clouds
5:53 AM 25.0 °F - 19.9 °F 81% 30.48 in 10.0 mi Calm Calm - N/A   Partly Cloudy
6:53 AM 24.1 °F 19.7 °F 19.0 °F 81% 30.49 in 10.0 mi WSW 3.5 mph - N/A   Partly Cloudy
7:53 AM 25.0 °F 14.2 °F 19.0 °F 78% 30.48 in 10.0 mi SW 11.5 mph - N/A   Mostly Cloudy
8:53 AM 24.8 °F 12.4 °F 19.4 °F 80% 30.35 in 10.0 mi SW 15.0 mph - N/A   Overcast
9:53 AM 27.0 °F 14.7 °F 19.0 °F 72% 30.47 in 10.0 mi SW 16.1 mph - N/A   Partly Cloudy
10:53 AM 30.0 °F 20.0 °F 21.0 °F 69% 30.44 in 10.0 mi SW 12.7 mph - N/A   Partly Cloudy
11:53 AM 33.1 °F 23.4 °F 21.9 °F 64% 30.40 in 10.0 mi SW 13.8 mph - N/A   Partly Cloudy
12:53 PM 37.0 °F 28.9 °F 23.0 °F 57% 30.35 in 10.0 mi WSW 12.7 mph - N/A   Partly Cloudy
1:53 PM 39.0 °F 31.8 °F 21.9 °F 50% 30.30 in 10.0 mi SW 11.5 mph - N/A   Partly Cloudy
2:53 PM 39.0 °F 32.8 °F 21.0 °F 49% 30.27 in 10.0 mi SW 9.2 mph - N/A   Partly Cloudy
3:53 PM 39.0 °F 31.8 °F 21.0 °F 49% 30.25 in 10.0 mi WSW 11.5 mph - N/A   Partly Cloudy
4:53 PM 39.0 °F 34.0 °F 21.0 °F 49% 30.22 in 10.0 mi SW 6.9 mph - N/A   Partly Cloudy
5:53 PM 37.9 °F 34.4 °F 21.9 °F 53% 30.21 in 10.0 mi East 4.6 mph - N/A   Partly Cloudy
6:53 PM 36.0 °F 33.3 °F 21.9 °F 57% 30.22 in 10.0 mi NNE 3.5 mph - N/A   Mostly Cloudy
7:53 PM 34.0 °F 29.8 °F 21.0 °F 59% 30.22 in 10.0 mi NNE 4.6 mph - N/A   Partly Cloudy
8:53 PM 33.1 °F 28.7 °F 21.9 °F 64% 30.22 in 10.0 mi NNE 4.6 mph - N/A   Partly Cloudy
9:53 PM 32.0 °F 28.7 °F 21.9 °F 66% 30.20 in 10.0 mi North 3.5 mph - N/A   Partly Cloudy
10:53 PM 30.0 °F - 21.9 °F 72% 30.19 in 10.0 mi Calm Calm - N/A   Scattered Clouds
11:53 PM 32.0 °F - 23.0 °F 69% 30.18 in 10.0 mi Calm Calm - N/A   Overcast